Location: Aalen
(48.8330°N, 10.1000°E)
Time: 20:10:03
(UTC+02:00)

CAS-6 - Pass Details

Date: 29 March 2023
Orbit: 610 x 632 km, 97.9° (Epoch: 04 June)

Event Time Altitude Azimuth Distance (km) Brightness Sun altitude
Exits shadow 00:02:31 20° 326° (NW) 1,436 ? -35.0°
Drops below altitude 10° 00:04:02 10° 335° (NNW) 2,001 ? -35.1°
Sets 00:06:19 0° 342° (NNW) 2,917 ? -35.3°
